NKS125 KPHX-KSAN

Flight info

Callsign NKS125
Flight time 0h 57m
Altitude 32000
Route FYRBD1 MOHAK J2 HOGGZ LUCKI1
Aircraft A320/M-SDE3FGHIRWY/LB1

Departure

Time 2026-05-04 21:33
Airport Phoenix Sky Harbor International Airport (KPHX)

Arrival

Time 2026-05-04 22:30
Airport San Diego International Airport (KSAN)
Time Latitude Longitude Altitude Speed Heading
2026-05-04 21:08 33.43787 -111.99729 1131 ft 0 kts 90°
2026-05-04 21:18 33.43787 -111.99741 1135 ft 2 kts 71°
2026-05-04 21:18 33.43781 -111.99760 1135 ft 2 kts 61°
2026-05-04 21:18 33.43771 -111.99775 1136 ft 2 kts 27°
2026-05-04 21:18 33.43755 -111.99782 1134 ft 2 kts
2026-05-04 21:19 33.43742 -111.99783 1133 ft 1 kts
2026-05-04 21:19 33.43741 -111.99783 1133 ft 0 kts
2026-05-04 21:29 33.43742 -111.99783 1131 ft 1 kts
2026-05-04 21:29 33.43796 -111.99783 1133 ft 15 kts
2026-05-04 21:30 33.43895 -111.99765 1133 ft 11 kts 51°
2026-05-04 21:30 33.43904 -111.99669 1132 ft 13 kts 89°
2026-05-04 21:30 33.43904 -111.99555 1132 ft 16 kts 91°
2026-05-04 21:30 33.43903 -111.99401 1132 ft 20 kts 90°
2026-05-04 21:31 33.44015 -111.99227 1136 ft 14 kts
2026-05-04 21:31 33.44082 -111.99283 1141 ft 14 kts 279°
2026-05-04 21:31 33.44083 -111.99316 1139 ft 0 kts 270°
2026-05-04 21:32 33.44083 -111.99334 1138 ft 12 kts 270°
2026-05-04 21:32 33.44083 -111.99734 1137 ft 82 kts 270°
2026-05-04 21:32 33.44084 -112.00652 1130 ft 135 kts 270°
2026-05-04 21:32 33.44085 -112.01926 1350 ft 158 kts 272°
2026-05-04 21:33 33.44011 -112.03215 2019 ft 154 kts 258°
2026-05-04 21:33 33.43687 -112.04437 2651 ft 154 kts 250°
2026-05-04 21:33 33.43291 -112.05663 3102 ft 166 kts 250°
2026-05-04 21:33 33.42847 -112.07041 3390 ft 188 kts 250°
2026-05-04 21:34 33.42355 -112.08601 3649 ft 212 kts 250°
2026-05-04 21:34 33.41814 -112.10358 4032 ft 237 kts 250°
2026-05-04 21:34 33.41233 -112.12290 4657 ft 254 kts 250°
2026-05-04 21:34 33.40635 -112.14307 5520 ft 260 kts 248°
2026-05-04 21:35 33.39825 -112.16229 6466 ft 261 kts 229°
2026-05-04 21:35 33.38402 -112.17555 7519 ft 261 kts 204°
2026-05-04 21:35 33.36626 -112.18051 8649 ft 265 kts 189°
2026-05-04 21:35 33.34849 -112.18543 9734 ft 261 kts 211°
2026-05-04 21:36 33.33447 -112.19957 10437 ft 274 kts 227°
2026-05-04 21:36 33.32142 -112.21740 10783 ft 293 kts 231°
2026-05-04 21:36 33.30831 -112.23646 11421 ft 300 kts 231°
2026-05-04 21:36 33.29475 -112.25569 12128 ft 304 kts 230°
2026-05-04 21:37 33.28063 -112.27479 12905 ft 308 kts 229°
2026-05-04 21:37 33.26619 -112.29349 13579 ft 313 kts 229°
2026-05-04 21:37 33.25106 -112.31249 14226 ft 317 kts 229°
2026-05-04 21:37 33.23565 -112.33153 14868 ft 320 kts 229°
2026-05-04 21:38 33.22007 -112.35061 15516 ft 321 kts 229°
2026-05-04 21:38 33.20443 -112.36976 16171 ft 323 kts 229°
2026-05-04 21:38 33.18872 -112.38905 16832 ft 325 kts 230°
2026-05-04 21:38 33.17289 -112.40851 17509 ft 327 kts 230°
2026-05-04 21:39 33.15697 -112.42808 18191 ft 330 kts 231°
2026-05-04 21:39 33.14101 -112.44774 18822 ft 330 kts 230°
2026-05-04 21:39 33.12504 -112.46741 19496 ft 330 kts 229°
2026-05-04 21:39 33.10900 -112.48716 20092 ft 332 kts 229°
2026-05-04 21:40 33.09286 -112.50699 20675 ft 334 kts 229°
2026-05-04 21:40 33.07663 -112.52689 21241 ft 336 kts 228°
2026-05-04 21:40 33.06032 -112.54689 21815 ft 337 kts 228°
2026-05-04 21:40 33.04398 -112.56695 22395 ft 339 kts 227°
2026-05-04 21:41 33.02750 -112.58715 22948 ft 340 kts 227°
2026-05-04 21:41 33.01095 -112.60740 23497 ft 342 kts 227°
2026-05-04 21:41 32.99430 -112.62774 23940 ft 344 kts 227°
2026-05-04 21:41 32.97776 -112.64835 24411 ft 344 kts 231°
2026-05-04 21:42 32.96404 -112.67163 24865 ft 345 kts 240°
2026-05-04 21:42 32.95451 -112.69790 25324 ft 348 kts 250°
2026-05-04 21:42 32.94941 -112.72619 25775 ft 351 kts 257°
2026-05-04 21:42 32.94564 -112.75498 26236 ft 352 kts 257°
2026-05-04 21:43 32.94187 -112.78345 26690 ft 353 kts 257°
2026-05-04 21:43 32.93799 -112.81230 27140 ft 353 kts 256°
2026-05-04 21:43 32.93408 -112.84120 27576 ft 354 kts 256°
2026-05-04 21:43 32.93013 -112.87016 28005 ft 355 kts 256°
2026-05-04 21:44 32.92614 -112.89924 28430 ft 356 kts 256°
2026-05-04 21:44 32.92216 -112.92842 28852 ft 358 kts 256°
2026-05-04 21:44 32.91818 -112.95766 29276 ft 359 kts 256°
2026-05-04 21:44 32.91416 -112.98714 29705 ft 361 kts 256°
2026-05-04 21:45 32.91013 -113.01662 30110 ft 362 kts 256°
2026-05-04 21:45 32.90607 -113.04626 30465 ft 363 kts 256°
2026-05-04 21:45 32.90202 -113.07575 30820 ft 364 kts 256°
2026-05-04 21:45 32.89790 -113.10574 31196 ft 365 kts 256°
2026-05-04 21:46 32.89380 -113.13555 31594 ft 365 kts 256°
2026-05-04 21:46 32.88970 -113.16523 31886 ft 363 kts 256°
2026-05-04 21:46 32.88568 -113.19451 31940 ft 351 kts 256°
2026-05-04 21:46 32.88188 -113.22259 31947 ft 338 kts 255°
2026-05-04 21:47 32.87814 -113.25006 31936 ft 334 kts 255°
2026-05-04 21:47 32.87071 -113.30393 31937 ft 331 kts 255°
2026-05-04 21:48 32.86312 -113.35792 31936 ft 331 kts 255°
2026-05-04 21:48 32.85553 -113.41197 31926 ft 331 kts 255°
2026-05-04 21:49 32.84796 -113.46596 31930 ft 331 kts 255°
2026-05-04 21:49 32.84034 -113.52000 31917 ft 331 kts 255°
2026-05-04 21:50 32.83268 -113.57403 31955 ft 331 kts 255°
2026-05-04 21:50 32.82502 -113.62801 31954 ft 331 kts 255°
2026-05-04 21:51 32.81735 -113.68208 31952 ft 331 kts 255°
2026-05-04 21:51 32.80972 -113.73574 31953 ft 331 kts 255°
2026-05-04 21:52 32.80202 -113.78976 31962 ft 331 kts 254°
2026-05-04 21:52 32.79431 -113.84362 31959 ft 330 kts 254°
2026-05-04 21:53 32.78661 -113.89741 31947 ft 330 kts 254°
2026-05-04 21:53 32.77890 -113.95112 31943 ft 329 kts 254°
2026-05-04 21:54 32.77551 -114.00588 31930 ft 336 kts 261°
2026-05-04 21:54 32.77497 -114.06133 31926 ft 336 kts 261°
2026-05-04 21:55 32.77592 -114.11709 31931 ft 339 kts 263°
2026-05-04 21:55 32.77859 -114.17310 31912 ft 340 kts 263°
2026-05-04 21:56 32.78123 -114.22919 31914 ft 339 kts 263°
2026-05-04 21:56 32.78357 -114.28514 31903 ft 339 kts 263°
2026-05-04 21:57 32.78571 -114.34120 31957 ft 339 kts 263°
2026-05-04 21:57 32.79055 -114.39743 31991 ft 353 kts 274°
2026-05-04 21:58 32.80585 -114.45335 31973 ft 359 kts 276°
2026-05-04 21:58 32.82147 -114.50966 31962 ft 359 kts 276°
2026-05-04 21:59 32.83703 -114.56615 31957 ft 359 kts 275°
2026-05-04 21:59 32.85252 -114.62267 31957 ft 359 kts 275°
2026-05-04 22:00 32.86542 -114.66971 31972 ft 359 kts 275°
2026-05-04 22:00 32.87819 -114.72643 31969 ft 345 kts 265°
2026-05-04 22:01 32.87816 -114.78226 31975 ft 336 kts 259°
2026-05-04 22:01 32.87687 -114.83793 31965 ft 337 kts 259°
2026-05-04 22:02 32.87567 -114.89366 31960 ft 337 kts 259°
2026-05-04 22:02 32.87442 -114.94929 31956 ft 336 kts 259°
2026-05-04 22:03 32.87317 -115.00491 31961 ft 336 kts 259°
2026-05-04 22:03 32.87191 -115.06005 31713 ft 333 kts 259°
2026-05-04 22:03 32.87126 -115.08754 31253 ft 331 kts 259°
2026-05-04 22:04 32.87060 -115.11486 30802 ft 329 kts 259°
2026-05-04 22:04 32.86994 -115.14203 30363 ft 328 kts 259°
2026-05-04 22:04 32.86930 -115.16904 29903 ft 326 kts 259°
2026-05-04 22:04 32.86862 -115.19594 29388 ft 325 kts 259°
2026-05-04 22:05 32.86793 -115.22276 28928 ft 323 kts 259°
2026-05-04 22:05 32.86725 -115.24926 28532 ft 319 kts 259°
2026-05-04 22:05 32.86659 -115.27554 28143 ft 316 kts 259°
2026-05-04 22:05 32.86592 -115.30156 27759 ft 313 kts 259°
2026-05-04 22:06 32.86524 -115.32737 27362 ft 311 kts 260°
2026-05-04 22:06 32.86330 -115.35254 27019 ft 301 kts 252°
2026-05-04 22:06 32.85977 -115.37703 26650 ft 299 kts 253°
2026-05-04 22:06 32.85635 -115.40134 26279 ft 297 kts 253°
2026-05-04 22:07 32.85299 -115.42547 25918 ft 295 kts 253°
2026-05-04 22:07 32.84965 -115.44952 25558 ft 293 kts 253°
2026-05-04 22:07 32.84633 -115.47337 25199 ft 292 kts 254°
2026-05-04 22:07 32.84296 -115.49713 24857 ft 290 kts 253°
2026-05-04 22:08 32.83928 -115.52065 24506 ft 288 kts 253°
2026-05-04 22:08 32.83544 -115.54400 24172 ft 287 kts 253°
2026-05-04 22:08 32.83159 -115.56721 23837 ft 285 kts 253°
2026-05-04 22:08 32.82780 -115.59001 23514 ft 284 kts 253°
2026-05-04 22:09 32.82398 -115.61298 23110 ft 283 kts 253°
2026-05-04 22:09 32.82018 -115.63595 22740 ft 282 kts 254°
2026-05-04 22:09 32.81642 -115.65886 22366 ft 281 kts 254°
2026-05-04 22:09 32.81267 -115.68166 21977 ft 281 kts 254°
2026-05-04 22:10 32.80889 -115.70442 21584 ft 280 kts 254°
2026-05-04 22:10 32.80513 -115.72711 21211 ft 280 kts 254°
2026-05-04 22:10 32.80139 -115.74977 20843 ft 280 kts 255°
2026-05-04 22:10 32.79764 -115.77252 20468 ft 280 kts 255°
2026-05-04 22:11 32.79392 -115.79517 20107 ft 279 kts 255°
2026-05-04 22:11 32.79018 -115.81782 19748 ft 279 kts 255°
2026-05-04 22:11 32.78643 -115.84046 19391 ft 279 kts 256°
2026-05-04 22:11 32.78410 -115.86341 19095 ft 281 kts 261°
2026-05-04 22:12 32.78246 -115.88657 18794 ft 281 kts 261°
2026-05-04 22:12 32.78073 -115.90971 18496 ft 281 kts 261°
2026-05-04 22:12 32.77898 -115.93251 18192 ft 281 kts 262°
2026-05-04 22:12 32.77721 -115.95565 17849 ft 281 kts 262°
2026-05-04 22:13 32.77545 -115.97875 17513 ft 281 kts 262°
2026-05-04 22:13 32.77370 -116.00184 17181 ft 280 kts 262°
2026-05-04 22:13 32.77198 -116.02485 16844 ft 279 kts 262°
2026-05-04 22:13 32.77025 -116.04781 16551 ft 279 kts 262°
2026-05-04 22:14 32.76850 -116.07071 16256 ft 278 kts 262°
2026-05-04 22:14 32.76675 -116.09357 15959 ft 278 kts 262°
2026-05-04 22:14 32.76501 -116.11638 15667 ft 277 kts 262°
2026-05-04 22:14 32.76328 -116.13914 15384 ft 276 kts 262°
2026-05-04 22:15 32.76155 -116.16188 15097 ft 276 kts 262°
2026-05-04 22:15 32.75982 -116.18457 14805 ft 275 kts 262°
2026-05-04 22:15 32.75810 -116.20722 14528 ft 275 kts 262°
2026-05-04 22:15 32.75636 -116.22980 14241 ft 274 kts 262°
2026-05-04 22:16 32.75462 -116.25236 13964 ft 275 kts 262°
2026-05-04 22:16 32.75288 -116.27489 13674 ft 272 kts 262°
2026-05-04 22:16 32.75114 -116.29728 13361 ft 271 kts 262°
2026-05-04 22:16 32.74943 -116.31952 13051 ft 269 kts 262°
2026-05-04 22:17 32.74775 -116.34128 12745 ft 268 kts 262°
2026-05-04 22:17 32.74601 -116.36355 12439 ft 266 kts 262°
2026-05-04 22:17 32.74431 -116.38533 12156 ft 264 kts 261°
2026-05-04 22:17 32.74265 -116.40670 11861 ft 263 kts 261°
2026-05-04 22:18 32.74097 -116.42828 11562 ft 262 kts 262°
2026-05-04 22:18 32.73928 -116.44978 11268 ft 262 kts 262°
2026-05-04 22:18 32.73755 -116.47141 10982 ft 263 kts 262°
2026-05-04 22:18 32.73586 -116.49294 10691 ft 261 kts 262°
2026-05-04 22:19 32.73411 -116.51432 10424 ft 259 kts 261°
2026-05-04 22:19 32.73215 -116.53553 10098 ft 256 kts 261°
2026-05-04 22:19 32.73013 -116.55622 9758 ft 248 kts 260°
2026-05-04 22:19 32.72814 -116.57617 9424 ft 240 kts 262°
2026-05-04 22:20 32.72616 -116.59591 9083 ft 242 kts 262°
2026-05-04 22:20 32.72420 -116.61580 8746 ft 243 kts 262°
2026-05-04 22:20 32.72226 -116.63578 8423 ft 243 kts 263°
2026-05-04 22:20 32.72034 -116.65570 8114 ft 243 kts 263°
2026-05-04 22:21 32.71854 -116.67571 7813 ft 245 kts 264°
2026-05-04 22:21 32.71693 -116.69581 7515 ft 244 kts 265°
2026-05-04 22:21 32.71542 -116.71579 7218 ft 242 kts 265°
2026-05-04 22:21 32.71390 -116.73566 6925 ft 242 kts 266°
2026-05-04 22:22 32.71237 -116.75558 6642 ft 243 kts 266°
2026-05-04 22:22 32.71084 -116.77515 6345 ft 238 kts 266°
2026-05-04 22:22 32.70932 -116.79458 6026 ft 228 kts 267°
2026-05-04 22:22 32.70785 -116.81266 5719 ft 218 kts 263°
2026-05-04 22:23 32.70388 -116.82970 5408 ft 211 kts 252°
2026-05-04 22:23 32.69876 -116.84593 5114 ft 211 kts 252°
2026-05-04 22:23 32.69364 -116.86234 4810 ft 212 kts 252°
2026-05-04 22:23 32.68852 -116.87878 4491 ft 213 kts 251°
2026-05-04 22:24 32.68349 -116.89532 4266 ft 214 kts 251°
2026-05-04 22:24 32.67860 -116.91193 4056 ft 212 kts 253°
2026-05-04 22:24 32.67418 -116.92850 3867 ft 210 kts 262°
2026-05-04 22:24 32.67419 -116.94560 3669 ft 207 kts 281°
2026-05-04 22:25 32.67810 -116.96197 3485 ft 205 kts 286°
2026-05-04 22:25 32.68206 -116.97799 3274 ft 200 kts 285°
2026-05-04 22:25 32.68586 -116.99362 3085 ft 195 kts 285°
2026-05-04 22:25 32.68955 -117.00879 2954 ft 188 kts 286°
2026-05-04 22:26 32.69319 -117.02373 2840 ft 188 kts 285°
2026-05-04 22:26 32.69665 -117.03788 2712 ft 170 kts 285°
2026-05-04 22:26 32.69981 -117.05084 2579 ft 157 kts 285°
2026-05-04 22:26 32.70280 -117.06312 2466 ft 153 kts 285°
2026-05-04 22:27 32.70561 -117.07464 2345 ft 138 kts 285°
2026-05-04 22:27 32.70821 -117.08533 2145 ft 132 kts 285°
2026-05-04 22:27 32.71078 -117.09584 1937 ft 133 kts 285°
2026-05-04 22:27 32.71341 -117.10628 1684 ft 131 kts 285°
2026-05-04 22:28 32.71579 -117.11663 1430 ft 133 kts 283°
2026-05-04 22:28 32.71834 -117.12730 1190 ft 136 kts 286°
2026-05-04 22:28 32.72097 -117.13797 990 ft 135 kts 287°
2026-05-04 22:28 32.72362 -117.14864 677 ft 134 kts 288°
2026-05-04 22:29 32.72616 -117.15877 469 ft 125 kts 285°
2026-05-04 22:29 32.72853 -117.16868 301 ft 126 kts 287°
2026-05-04 22:29 32.73094 -117.17882 102 ft 127 kts 286°
2026-05-04 22:29 32.73328 -117.18852 23 ft 110 kts 287°
2026-05-04 22:30 32.73492 -117.19519 23 ft 49 kts 286°
2026-05-04 22:30 32.73529 -117.19772 26 ft 22 kts 251°
2026-05-04 22:30 32.73499 -117.19873 24 ft 12 kts 251°
2026-05-04 22:30 32.73463 -117.19946 23 ft 10 kts 216°
2026-05-04 22:31 32.73401 -117.19969 22 ft 10 kts 194°
2026-05-04 22:31 32.73331 -117.19984 22 ft 10 kts 176°
2026-05-04 22:31 32.73312 -117.19962 22 ft 5 kts 118°